Location: Utrecht
(52.0830°N, 5.1330°E)
Time: 02:12:15
(UTC+01:00)

Daily predictions for brighter satellites

Satellite Brightness Start Highest point End
(mag) Time Altitude Azimuth Time Altitude Azimuth Time Altitude Azimuth
ATLAS 2AS CENTAUR R/B 4.5 03:13:20 31° NE 03:13:20 31° NE 03:18:13 10° ENE
ADEOS II 3.8 04:36:34 10° NNE 04:39:02 27° NNE 04:39:02 27° NNE
ADEOS Rocket 4.0 04:36:53 10° NNE 04:42:26 48° N 04:42:26 48° N
SeaSat 1 4.2 04:42:25 10° NE 04:46:39 28° ESE 04:47:13 27° ESE
NOSS 3-1 (A) 4.0 04:55:59 66° S 04:55:59 66° S 05:03:09 10° SSE
Cosmos 2297 Rocket 3.2 05:02:21 38° NNE 05:02:21 38° NNE 05:05:50 10° NNE
ATLAS 2AS CENTAUR R/B 3.4 05:00:47 44° NNW 05:03:23 62° NE 05:11:09 10° ESE
Cosmos 1680 Rocket 4.1 05:04:21 54° E 05:04:21 54° E 05:09:08 10° SE
Cosmos 968 Rocket 4.0 05:11:11 55° NE 05:11:11 55° NE 05:15:24 10° NNE
Cosmos 2227 Rocket 3.3 05:16:08 33° N 05:16:08 33° N 05:19:31 10° NNE
Cosmos 1626 4.2 05:21:46 26° ESE 05:21:46 26° ESE 05:23:54 10° SE
Cosmos 2233 Rocket 3.9 05:20:13 53° S 05:21:51 88° E 05:28:14 10° N
COSMO-SKYMED 1 3.7 05:20:32 10° SSE 05:23:22 38° SE 05:23:22 38° SE
USA 234 3.4 05:21:01 10° E 05:27:29 66° NNE 05:29:00 51° NW
Cosmos 1943 3.2 05:29:18 67° NNW 05:30:05 82° ENE 05:35:48 10° SSE
Meteor 1-16 Rocket 4.2 05:29:12 36° S 05:31:23 73° E 05:36:42 10° NNE
Sich 1 4.3 05:29:23 20° NNE 05:31:58 40° ENE 05:36:02 10° SE
CZ-4B R/B 4.3 05:27:18 10° N 05:30:06 30° N 05:30:06 30° N
NOSS 3-1 (C) 4.5 05:33:43 40° SW 05:33:43 40° SW 05:40:09 10° S
Cosmos 1356 Rocket 4.4 05:33:41 43° SE 05:33:41 43° SE 05:36:44 10° SSE
Cosmos 2112 Rocket 3.9 05:39:40 62° NNW 05:40:36 87° ENE 05:45:58 10° SSE
Cosmos 1633 Rocket 4.1 05:39:12 15° N 05:42:37 45° ENE 05:46:47 10° SSE
Meteor 1-28 Rocket 4.0 05:39:16 10° SSE 05:42:19 48° ESE 05:42:19 48° ESE
Meteor 1-11 4.2 05:45:16 64° W 05:45:18 64° W 05:51:01 10° S
Cosmos 2263 Rocket 3.9 05:47:35 10° SSE 05:52:35 33° ESE 05:57:36 10° NE
Cosmos 292 Rocket 4.5 05:54:17 39° SSW 05:54:17 39° SSW 05:57:31 10° S
Cosmos 1703 4.5 05:55:38 32° S 05:55:38 32° S 05:57:51 10° S
NOAA 6 4.1 05:48:55 10° NNE 05:54:10 78° ESE 05:59:22 10° SSW
CZ-4 R/B 4.3 05:56:28 10° NE 05:59:26 19° E 06:02:25 10° SE
Cosmos 1777 Rocket 3.8 06:01:08 34° SSW 06:03:27 80° WNW 06:08:42 10° NNE
Feng Yun 1-1 Rocket 4.1 05:58:41 10° NNE 06:04:06 65° WNW 06:07:44 22° SW
COSMOS 2406 4.3 05:59:37 14° NNW 06:04:13 43° NE 06:09:43 10° ESE
Cosmos 2221 2.4 06:01:13 10° S 06:05:33 87° WNW 06:09:52 10° N
ATLAS CENTAUR R/B 3.5 06:10:50 14° N 06:11:29 15° N 06:13:52 10° NE
SKYMED 2 4.1 06:08:44 10° S 06:12:00 41° SW 06:12:00 41° SW
Cosmos 389 Rocket 3.5 06:13:52 10° S 06:17:26 49° E 06:21:00 10° NNE
Okean-O 3.5 06:14:26 10° N 06:17:21 32° NNW 06:17:21 32° NNW
Cosmos 1666 Rocket 3.5 06:15:59 19° NNW 06:19:07 71° W 06:23:34 10° S
Cosmos 1464 Rocket 3.9 06:14:35 10° SSW 06:20:53 75° WNW 06:27:09 10° N
ADEOS II 3.2 06:16:49 10° N 06:20:00 25° NW 06:20:00 25° NW
ATLAS CENTAUR R/B 2.9 06:22:04 34° NW 06:23:37 53° NNE 06:32:41 10° E
Tiangong 2 3.6 06:23:18 12° S 06:24:11 13° S 06:25:49 10° SE
SeaSat 1 2.4 06:19:36 10° NNE 06:24:28 59° NW 06:27:02 27° WSW
Meteor 2-1 Rocket 4.2 06:23:46 10° SSW 06:29:26 64° WNW 06:35:15 10° N
Cosmos 1933 Rocket 4.0 06:26:11 10° N 06:30:38 64° ENE 06:35:02 10° SSE
Cosmos 1891 Rocket 4.5 06:24:27 10° SSW 06:30:57 78° WNW 06:37:27 10° N
Ariane Rocket 3.1 06:26:39 10° NNE 06:31:48 81° ESE 06:36:55 10° SSW
Cosmos 192 4.2 06:28:39 19° NNW 06:32:11 75° WSW 06:37:07 10° SSE
Alouette 2 Rocket 4.3 06:31:27 10° N 06:34:54 44° ENE 06:38:40 10° SE
Cosmos 2227 4.3 06:32:15 21° WSW 06:35:57 54° NW 06:41:31 10° NNE
Cosmos 1908 3.1 06:39:09 10° S 06:42:59 88° WNW 06:46:51 10° N
NOSS 3-4 (A) 4.3 06:38:31 16° NW 06:43:56 54° NNE 06:51:02 10° ESE
NOSS 3-4 (C) 4.3 06:38:36 16° NW 06:44:01 54° NNE 06:51:07 10° ESE
Cosmos 2297 Rocket 3.5 06:44:11 20° NW 06:45:15 21° NNW 06:49:32 10° NNE
Cosmos 1680 Rocket 4.4 06:44:43 26° W 06:45:44 28° W 06:50:10 10° SSW
Cosmos 1470 Rocket 3.4 06:47:44 10° NNW 06:52:04 75° W 06:56:25 10° S
PAYLOAD A 4.0 06:47:06 10° NNE 06:52:09 80° ESE 06:56:59 10° SSW
Cosmos 1898 Rocket 3.9 06:47:29 10° SSW 06:52:43 67° ESE 06:58:01 10° NNE
Cosmos 1300 4.2 06:49:25 10° SSE 06:53:01 40° E 06:56:38 10° NNE
ATLAS 2AS CENTAUR R/B 3.2 06:48:14 17° NW 06:54:27 52° WSW 07:01:47 10° SSE
Cosmos 1626 3.5 06:56:31 21° WSW 06:56:31 21° WSW 06:58:42 10° SW
TELKOM 3 3.8 06:55:46 28° SW 06:56:38 42° S 06:58:42 10° E
Cosmos 2227 Rocket 3.8 06:57:58 15° NW 06:59:32 17° NNW 07:03:07 10° NNE
IDEFIX/ARIANE 42P 3.0 06:54:42 10° NNE 07:00:00 68° ESE 07:05:15 10° S
COSMO-SKYMED 1 4.1 06:58:17 10° SW 07:00:35 18° WSW 07:00:35 18° WSW
Cosmos 1655 Rocket 4.3 06:56:00 10° N 07:02:17 72° ENE 07:08:30 10° SSE
Cosmos 1627 Rocket 4.5 06:57:38 10° N 07:03:49 90° W 07:10:01 10° S
In-Cosmos 22 Rocket 4.3 06:59:52 10° NNW 07:05:23 80° ENE 07:11:01 10° SSE
Cosmos 2150 Rocket 4.3 07:03:50 10° SSW 07:09:14 75° ESE 07:14:34 10° NNE
Sich 1 4.0 07:06:26 13° NW 07:09:29 25° W 07:13:02 10° SW
USA 234 3.3 07:04:00 10° SE 07:10:32 71° SW 07:16:21 14° WNW
Meteor 1-29 3.1 07:07:26 10° SSE 07:10:56 78° ENE 07:14:28 10° NNW
Cosmos 1833 Rocket 4.4 07:08:17 10° NNW 07:13:00 26° NE 07:17:42 10° E
Cosmos 1943 4.5 07:11:09 16° WNW 07:13:28 21° W 07:17:33 10° SSW
Cosmos 1634 Rocket 4.1 07:09:54 10° S 07:16:12 89° E 07:22:30 10° N
Cosmos 2082 Rocket 3.8 07:11:21 10° NNW 07:16:22 30° NE 07:21:22 10° ESE
Cosmos 1937 Rocket 3.6 07:13:26 10° SSW 07:18:34 78° ESE 07:23:44 10° NNE
Cosmos 1633 Rocket 4.2 07:16:43 10° NW 07:20:09 23° W 07:23:34 10° SW
Cosmos 1048 Rocket 4.5 07:15:36 10° NNW 07:20:59 65° ENE 07:26:16 10° SE
CZ-2C R/B 2.2 07:16:48 10° NNE 07:21:25 81° WNW 07:25:59 10° SSW
CSL-04 Debris 4.2 07:18:24 10° N 07:23:48 58° WNW 07:29:08 10° SW
Meteor 2-2 Rocket 4.2 07:18:50 10° SSW 07:24:37 77° WNW 07:30:21 10° N
SJ-7 4.3 07:23:40 10° NNE 07:27:43 79° WNW 07:31:47 10° SSW
Cosmos 1328 Rocket 3.8 07:23:43 10° SSW 07:27:55 46° WNW 07:32:11 10° N
Cosmos 1151 Rocket 2.9 07:23:39 10° SSW 07:27:55 83° WNW 07:32:13 10° N
OPS 8737 4.2 07:25:10 10° SW 07:28:19 67° NW 07:31:40 10° NE
Helios 1B rocket 2.6 07:25:10 10° S 07:29:11 54° WSW 07:33:15 10° NNW
Cosmos 2228 Rocket 3.4 07:25:02 10° SW 07:29:14 43° WNW 07:33:28 10° N
Cosmos 2026 Rocket 3.9 07:24:27 10° NNW 07:30:28 67° W 07:36:29 10° S
CZ-4 R/B 1.5 07:30:48 10° N 07:34:47 53° WNW 07:38:49 10° SSW
Cosmos 2263 Rocket 2.3 07:30:42 10° SW 07:36:17 55° NW 07:41:55 10° NNE
SMAP 3.0 07:33:31 10° N 07:38:09 67° WNW 07:42:47 10° SSW
Cosmos 1844 Rocket 3.9 07:33:04 10° S 07:38:28 48° ESE 07:43:55 10° NE
Cosmos 2298 Rocket 4.1 07:34:44 10° SW 07:39:59 61° WNW 07:45:16 10° NNE
Gbstr 26 Del rocket 4.4 07:34:52 10° WSW 07:40:39 69° SSE 07:47:48 10° ENE
SJ-12 4.2 07:36:50 10° N 07:40:45 45° WNW 07:44:38 10° SW
Cosmos 1515 Rocket 3.9 07:37:02 10° SSW 07:41:19 46° WNW 07:45:38 10° N
CSL-04 Rocket 4.1 07:38:52 10° N 07:43:42 37° WNW 07:48:29 10° SW
Cosmos 2221 4.2 07:41:50 10° W 07:43:51 13° WNW 07:45:52 10° NNW
YAOGAN 1 2.6 07:42:00 10° N 07:46:18 61° WNW 07:50:34 10° SSW
COSMOS 2406 3.7 07:43:09 10° NW 07:48:37 45° WSW 07:54:04 10° S
APEX 3.4 07:45:48 10° WSW 07:48:40 30° NW 07:51:14 10° NNE
MOS 1 4.3 07:43:04 10° NNE 07:48:48 76° WNW 07:54:28 10° SSW
MSX 3.8 07:43:36 10° NNE 07:49:23 80° WNW 07:55:10 10° SSW
ATLAS CENTAUR R/B 2.8 07:48:17 10° NNW 07:51:48 27° NNE 07:55:08 10° E
SL-27 R/B 2.3 07:48:57 10° NNW 07:52:21 67° WSW 07:55:41 10° SSE
Cosmos 389 Rocket 4.1 07:50:05 10° WSW 07:52:37 17° WNW 07:55:09 10° NNW
AQUARIUS 4.4 07:49:42 10° N 07:54:02 47° WNW 07:58:21 10° SW
Iridium 4 Rocket 3.7 07:51:29 10° NNW 07:55:29 37° W 07:59:44 10° SSW
Cosmos 2266 Rocket 4.3 07:49:57 10° N 07:56:24 77° ENE 08:02:45 10° SSE
